Time,TemperatureF,DewpointF,PressureIn,WindDirection,WindDirectionDegrees,WindSpeedMPH,WindSpeedGustMPH,Humidity,HourlyPrecipIn,Conditions,Clouds,dailyrainin,SoftwareType,DateUTC
2013-10-25 05:21:00,31.0,-99.9,-100.00,NE,55,0.0,0.0,-999,-99.99,,,-99.99,,2013-10-25 13:21:00,
2013-10-25 05:32:00,31.0,-99.9,-100.00,NE,55,0.0,0.0,-999,-99.99,,,-99.99,,2013-10-25 13:32:00,
2013-10-25 05:42:00,31.0,-99.9,-100.00,NE,55,0.0,0.0,-999,-99.99,,,-99.99,,2013-10-25 13:42:00,
2013-10-25 05:52:00,31.0,-99.9,-100.00,NE,55,0.0,0.0,-999,-99.99,,,-99.99,,2013-10-25 13:52:00,
2013-10-25 06:22:00,30.0,-99.9,-100.00,NNE,28,0.0,0.0,-999,-99.99,,,-99.99,,2013-10-25 14:22:00,
2013-10-25 06:32:00,30.0,-99.9,-100.00,NNE,28,0.0,0.0,-999,-99.99,,,-99.99,,2013-10-25 14:32:00,
2013-10-25 06:42:00,30.0,-99.9,-100.00,NNE,28,0.0,0.0,-999,-99.99,,,-99.99,,2013-10-25 14:42:00,
2013-10-25 06:52:00,30.0,-99.9,-100.00,NNE,28,0.0,0.0,-999,-99.99,,,-99.99,,2013-10-25 14:52:00,
2013-10-25 07:22:00,30.0,-99.9,-100.00,North,0,0.0,0.0,-999,-99.99,,,-99.99,,2013-10-25 15:22:00,
2013-10-25 07:33:00,30.0,-99.9,-100.00,North,0,0.0,0.0,-999,-99.99,,,-99.99,,2013-10-25 15:33:00,
2013-10-25 07:53:00,30.0,-99.9,-100.00,North,0,0.0,0.0,-999,-99.99,,,-99.99,,2013-10-25 15:53:00,
2013-10-25 08:23:00,27.0,-99.9,-100.00,East,80,0.0,4.0,-999,-99.99,,,-99.99,,2013-10-25 16:23:00,
2013-10-25 08:33:00,27.0,-99.9,-100.00,East,80,0.0,4.0,-999,-99.99,,,-99.99,,2013-10-25 16:33:00,
2013-10-25 08:43:00,27.0,-99.9,-100.00,East,80,0.0,4.0,-999,-99.99,,,-99.99,,2013-10-25 16:43:00,
2013-10-25 08:53:00,27.0,-99.9,-100.00,East,80,0.0,4.0,-999,-99.99,,,-99.99,,2013-10-25 16:53:00,
2013-10-25 09:23:00,27.0,-99.9,-100.00,ENE,64,0.0,0.0,-999,-99.99,,,-99.99,,2013-10-25 17:23:00,
2013-10-25 09:33:00,27.0,-99.9,-100.00,ENE,64,0.0,0.0,-999,-99.99,,,-99.99,,2013-10-25 17:33:00,
2013-10-25 09:52:00,27.0,-99.9,-100.00,ENE,64,0.0,0.0,-999,-99.99,,,-99.99,,2013-10-25 17:52:00,
2013-10-25 11:22:00,28.0,-99.9,-100.00,East,90,0.0,0.0,-999,-99.99,,,-99.99,,2013-10-25 19:22:00,
2013-10-25 11:32:00,28.0,-99.9,-100.00,East,90,0.0,0.0,-999,-99.99,,,-99.99,,2013-10-25 19:32:00,
2013-10-25 11:42:00,28.0,-99.9,-100.00,East,90,0.0,0.0,-999,-99.99,,,-99.99,,2013-10-25 19:42:00,
2013-10-25 12:22:00,32.0,-99.9,-100.00,East,90,0.0,0.0,-999,-99.99,,,-99.99,,2013-10-25 20:22:00,
2013-10-25 12:32:00,32.0,-99.9,-100.00,East,90,0.0,0.0,-999,-99.99,,,-99.99,,2013-10-25 20:32:00,
2013-10-25 13:22:00,39.0,-99.9,-100.00,NE,50,0.0,3.0,-999,-99.99,,,-99.99,,2013-10-25 21:22:00,
2013-10-25 13:34:00,39.0,-99.9,-100.00,NE,50,0.0,3.0,-999,-99.99,,,-99.99,,2013-10-25 21:34:00,
2013-10-25 13:43:00,39.0,-99.9,-100.00,NE,50,0.0,3.0,-999,-99.99,,,-99.99,,2013-10-25 21:43:00,
2013-10-25 13:54:00,39.0,-99.9,-100.00,NE,50,0.0,3.0,-999,-99.99,,,-99.99,,2013-10-25 21:54:00,
2013-10-25 14:24:00,41.0,-99.9,-100.00,NNE,22,0.0,0.0,-999,-99.99,,,-99.99,,2013-10-25 22:24:00,
2013-10-25 14:34:00,41.0,-99.9,-100.00,NNE,22,0.0,0.0,-999,-99.99,,,-99.99,,2013-10-25 22:34:00,
2013-10-25 14:42:00,41.0,-99.9,-100.00,NNE,22,0.0,0.0,-999,-99.99,,,-99.99,,2013-10-25 22:42:00,
2013-10-25 14:53:00,41.0,-99.9,-100.00,NNE,22,0.0,0.0,-999,-99.99,,,-99.99,,2013-10-25 22:53:00,
2013-10-25 15:23:00,43.0,-99.9,-100.00,NW,304,0.0,0.0,-999,-99.99,,,-99.99,,2013-10-25 23:23:00,
2013-10-25 15:34:00,43.0,-99.9,-100.00,NW,304,0.0,0.0,-999,-99.99,,,-99.99,,2013-10-25 23:34:00,
2013-10-25 15:42:00,43.0,-99.9,-100.00,NW,304,0.0,0.0,-999,-99.99,,,-99.99,,2013-10-25 23:42:00,
2013-10-25 15:53:00,43.0,-99.9,-100.00,NW,304,0.0,0.0,-999,-99.99,,,-99.99,,2013-10-25 23:53:00,
2013-10-25 16:22:00,44.0,-99.9,-100.00,NE,52,0.0,0.0,-999,-99.99,,,-99.99,,2013-10-26 00:22:00,
2013-10-25 16:32:00,44.0,-99.9,-100.00,NE,52,0.0,0.0,-999,-99.99,,,-99.99,,2013-10-26 00:32:00,
2013-10-25 16:42:00,44.0,-99.9,-100.00,NE,52,0.0,0.0,-999,-99.99,,,-99.99,,2013-10-26 00:42:00,
2013-10-25 16:52:00,44.0,-99.9,-100.00,NE,52,0.0,0.0,-999,-99.99,,,-99.99,,2013-10-26 00:52:00,
2013-10-25 17:22:00,41.0,-99.9,-100.00,West,275,0.0,0.0,-999,-99.99,,,-99.99,,2013-10-26 01:22:00,
2013-10-25 17:32:00,41.0,-99.9,-100.00,West,275,0.0,0.0,-999,-99.99,,,-99.99,,2013-10-26 01:32:00,
2013-10-25 17:52:00,41.0,-99.9,-100.00,West,275,0.0,0.0,-999,-99.99,,,-99.99,,2013-10-26 01:52:00,
2013-10-25 18:22:00,39.0,-99.9,-100.00,WNW,286,0.0,0.0,-999,-99.99,,,-99.99,,2013-10-26 02:22:00,
2013-10-25 18:32:00,39.0,-99.9,-100.00,WNW,286,0.0,0.0,-999,-99.99,,,-99.99,,2013-10-26 02:32:00,
2013-10-25 18:43:00,39.0,-99.9,-100.00,WNW,286,0.0,0.0,-999,-99.99,,,-99.99,,2013-10-26 02:43:00,
2013-10-25 18:52:00,39.0,-99.9,-100.00,WNW,286,0.0,0.0,-999,-99.99,,,-99.99,,2013-10-26 02:52:00,
2013-10-25 19:54:00,32.0,-99.9,-100.00,WNW,286,0.0,0.0,-999,-99.99,,,-99.99,,2013-10-26 03:54:00,
2013-10-25 20:44:00,32.0,-99.9,-100.00,WNW,286,0.0,0.0,-999,-99.99,,,-99.99,,2013-10-26 04:44:00,
2013-10-25 23:22:00,32.0,-99.9,-100.00,WNW,286,0.0,0.0,-999,-99.99,,,-99.99,,2013-10-26 07:22:00,
2013-10-25 23:32:00,32.0,-99.9,-100.00,WNW,286,0.0,0.0,-999,-99.99,,,-99.99,,2013-10-26 07:32:00,
2013-10-25 23:42:00,32.0,-99.9,-100.00,WNW,286,0.0,0.0,-999,-99.99,,,-99.99,,2013-10-26 07:42:00,
2013-10-25 23:52:00,32.0,-99.9,-100.00,WNW,286,0.0,0.0,-999,-99.99,,,-99.99,,2013-10-26 07:52:00,